Regional Weather Roundup
Issued by NWS

Home | Current Version | Previous Version | Graphics & Text | Print | Product List | Glossary On
Versions: 1 2 3 4 5 6 7 8 9 10 11 12 13 14 15 16 17 18 19 20 21 22 23 24 25 26 27 28 29 30 31 32 33 34 35 36 37 38 39 40 41 42 43 44 45 46 47 48 49 50
000
ASUS43 KDMX 282307
RWRIA

WEATHER ROUNDUP FOR IOWA
NATIONAL WEATHER SERVICE DES MOINES IA
500 PM CST FRI NOV 28 2014

NOTE: "FAIR" INDICATES FEW OR NO CLOUDS BELOW 12,000 FEET WITH NO
SIGNIFICANT WEATHER AND/OR OBSTRUCTIONS TO VISIBILITY.

* - THESE STATIONS ARE NOT NWS STATIONS...THUS NOT UNDER NWS
QUALITY CONTROL.  THEY ALSO DO NOT REPORT WEATHER SUCH
AS PRECIPITATION OR FOG.

IAZ001>003-012>014-020>022-031>034-043>046-290000-
   NORTHWEST IOWA

CITY           SKY/WX    TMP DP  RH WIND       PRES   REMARKS
CARROLL *      CLEAR     36  32  87 SE10      29.71F WCI  28
CHEROKEE *     CLEAR     32  30  93 SE6       29.70S WCI  26
DENISON *      CLEAR     39  34  81 SE6       29.68S WCI  35
LE MARS *      CLEAR     37  32  81 E3        29.68S
ORANGE CITY *  CLEAR     34  28  80 SE6       29.68S WCI  29
SHELDON *      CLEAR     30  28  93 SE8       29.68R WCI  23
SIOUX CITY     CLEAR     40  30  67 E7        29.67R
SPENCER        PTCLDY    30  25  81 SE9       29.71S WCI  22
STORM LAKE *   CLEAR     30  28  93 SE8       29.71R WCI  23
$$

IAZ055>058-069>071-079>083-090>094-290000-
   SOUTHWEST IOWA

CITY           SKY/WX    TMP DP  RH WIND       PRES   REMARKS
ATLANTIC *     CLEAR     43  34  70 SE6       29.72R
AUDUBON *      CLEAR     37  30  75 CALM      29.72F
CLARINDA *     CLEAR     46  32  57 S7        29.74F
COUNCIL BLFS * CLEAR     45  32  61 SE9       29.68F
CRESTON *      CLEAR     41  32  70 S9        29.75S
HARLAN  *      CLEAR     43  34  70 S8        29.74S
LAMONI         CLEAR     45  31  58 S7        29.76F
RED OAK *      CLEAR     46  32  57 SE6       29.71F
SHENANDOAH *   CLEAR     46  32  57 S8        29.72F
$$

IAZ047>049-059>061-072>074-084-290000-
   CENTRAL IOWA

CITY           SKY/WX    TMP DP  RH WIND       PRES   REMARKS
AMES           PTCLDY    30  24  78 SE9       29.78F WCI  22
ANKENY *       CLEAR     34  30  86 E7        29.78S WCI  28
CHARITON *     CLEAR     41  32  70 SE8       29.78S
DES MOINES     PTCLDY    42  30  62 SE8       29.77F
GRINNELL*      CLEAR     30  27  86 E10       29.79F WCI  21
KNOXVILLE *    CLEAR     37  30  75 SE7       29.78S WCI  32
MARSHALLTOWN   PTCLDY    30  25  81 SE12      29.78F WCI  20
PELLA *        CLEAR     36  30  80 SE8       29.81F WCI  29
PERRY *          N/A     36  32  87 SE9       29.74F WCI  29
$$

IAZ004>006-015-016-023>025-035-036-290000-
   NORTH CENTRAL IOWA

CITY           SKY/WX    TMP DP  RH WIND       PRES   REMARKS
ALGONA *       CLEAR     27  25  93 SE9G15    29.74R WCI  17
CLARION *      CLEAR     27  27 100 SE14      29.75F WCI  15
ESTHERVILLE    MOCLDY    24  22  91 SE9       29.71F WCI  14
FORT DODGE *   PTCLDY    30  23  74 SE8       29.75R WCI  23
MASON CITY     CLOUDY    26  22  84 SE9       29.79S WCI  17
FOREST CITY *  CLEAR     28  27  93 SE8       29.76F WCI  20
IOWA FALLS *     N/A     28  25  86 SE10      29.77F WCI  19
$$

IAZ007>011-017>019-026>030-037>042-050>054-066-290000-
   NORTHEAST IOWA

CITY           SKY/WX    TMP DP  RH WIND       PRES   REMARKS
CEDAR RAPIDS   MOCLDY    29  26  89 SE8       29.83F WCI  21
CHARLES CITY * PTCLDY    28  25  86 SE12      29.80F WCI  18
CLINTON *      MOCLDY    32  27  80 SE14      29.92F WCI  22
DECORAH *      CLEAR     25  21  86 SE8G14    29.83F WCI  16
DUBUQUE        CLOUDY    28  24  85 SE12      29.85F WCI  18
MONTICELLO *   PTCLDY    30  27  86 SE9       29.86S WCI  22
OELWEIN *      CLOUDY    28  25  86 SE9       29.84S WCI  20
WATERLOO       MOCLDY    30  25  81 SE13      29.81F WCI  20
$$

IAZ064-065-067-068-078-290000-
   EAST CENTRAL IOWA

CITY           SKY/WX    TMP DP  RH WIND       PRES   REMARKS
DAVENPORT      MOCLDY    32  26  78 SE9       29.89F WCI  24
IOWA CITY      PTCLDY    32  27  81 E8        29.87F WCI  25
MT. PLEASANT * PTCLDY    32  28  86 E8        29.86F WCI  25
MUSCATINE *    CLEAR     36  30  80 SE7       29.88F WCI  30
QUAD CITIES    MOCLDY    33  28  81 E8        29.89F WCI  26
$$

IAZ062-063-075>077-085>089-095>099-290000-
   SOUTHEAST IOWA

CITY           SKY/WX    TMP DP  RH WIND       PRES   REMARKS
BURLINGTON     PTCLDY    37  31  78 E7        29.87S WCI  32
FAIRFIELD *    CLEAR     36  30  80 SE7       29.83F WCI  30
FORT MADISON * CLEAR     43  36  75 SE8       29.87F
KEOKUK *       CLEAR     41  34  75 SE8       29.84F
OSKALOOSA *      N/A     36  30  80 SE10      29.82S WCI  28
CENTERVILLE *  CLEAR     43  32  65 SE6       29.80F
OTTUMWA        PTCLDY    36  30  79 E9        29.82F WCI  29
WASHINGTON *   CLEAR     32  32 100 SE9       29.85F WCI  24
$$

ABBREVIATIONS USED IN REMARKS
   TC - TEMPERATURES IN CELSIUS
  WCI - WIND CHILL INDEX
   HX - HEAT INDEX
  VSB - VISIBILITY
$$




USA.gov is the U.S. government's official web portal to all federal, state and local government web resources and services.